Flag for Germany Weather past 2 weeks in Wismar, Mecklenburg-Western Pomerania, Germany

Now
46 °F

Fog.


Feels Like: 45 °F
Forecast: 51 / 58 °F
Wind: 3 mph from South

Location: Schwerin

Current Time: Oct 25, 2014 at 2:57:20 AM

Latest Report: Oct 25, 2014 at 2:00 AM


Visibility: 3 mi

Pressure: 30.09 "Hg

Humidity: 92%

Dew point: 44 °F

Location of WismarLocation

Historic Weather in Wismar — Graph

°F

Wismar temperature yesterday

Maximum temperature yesterday: 53 °F (at 3:00 PM)
Minimum temperature yesterday: 48 °F (at 11:00 PM)
Average temperature yesterday: 50 °F

Past Weeks' High & Low Weather Summary

 TemperatureHumidityPressure
High71 °F (Oct 19, 4:00 PM)100% (Oct 14, 1:00 AM)30.20 "Hg (Oct 14, 1:00 AM)
Low46 °F (Oct 25, 1:00 AM)63% (Oct 12, 4:00 PM)29.38 "Hg (Oct 21, 8:00 PM)
Average55 °F89%29.87 "Hg
* Reported Oct 10 1:00 AM — Oct 25 1:00 AM, Wismar, Weather by CustomWeather, © 2014

Note: Actual official high and low records may vary slightly from our data, if they occured in-between our weather recording intervals... More about our weather records

Advertising

Wismar weather history for previous 24 hours

 ConditionsComfort  
Time TempWeatherWind HumidityBarometerVisibility
1:00 AM
Oct 25
46 °FFog.3 mph92%30.10 "Hg3 mi
12:00 AM47 °FFog.3 mph92%30.11 "Hg2 mi
11:00 PM
Oct 24
48 °FFog.3 mph91%30.12 "Hg2 mi
10:00 PM48 °FFog.3 mph90%30.12 "Hg3 mi
9:00 PM49 °FFog.3 mph90%30.12 "Hg3 mi
8:00 PM50 °FFog.3 mph91%30.12 "Hg3 mi
7:00 PM51 °FOvercast.2 mph84%30.12 "Hg6 mi
6:00 PM53 °FFog.2 mph85%30.12 "Hg4 mi
4:00 PM53 °FOvercast.2 mph81%30.15 "Hg5 mi
3:00 PM53 °FOvercast.3 mph81%30.16 "Hg5 mi
2:00 PM52 °FOvercast.3 mph82%30.17 "Hg6 mi
1:00 PM51 °FOvercast.2 mph82%30.19 "Hg7 mi
12:00 PM51 °FOvercast.3 mph81%30.19 "Hg8 mi
10:00 AM50 °FOvercast.3 mph82%30.19 "Hg10 mi
9:00 AM49 °FOvercast.2 mph84%30.19 "Hg11 mi
8:00 AM49 °FOvercast.3 mph85%30.18 "Hg9 mi
7:00 AM49 °FOvercast.3 mph87%30.17 "Hg7 mi
6:00 AM49 °FOvercast.2 mph87%30.17 "Hg7 mi
5:00 AM49 °FOvercast.2 mph88%30.18 "Hg7 mi
4:00 AM49 °FOvercast.3 mph89%30.18 "Hg6 mi
3:00 AM48 °FOvercast.2 mph90%30.19 "Hg6 mi
2:00 AM48 °FOvercast.2 mph90%30.19 "Hg6 mi
Weather by CustomWeather, © 2014

See weather overviewHow to use our weather pages